Location: *
(45.9500°N, 9.0833°E)
Time: 00:49:00
(UTC+00:00)

Vanguard 2 Rocket - Pass Details

Date: 20 June 2021
Orbit: 555 x 3325 km, 32.9° (Epoch: 03 August)

Event Time Altitude Azimuth Distance (km) Brightness Sun altitude
Rises 14:24:41 0° 171° (S) 6,886 11.4 47.6°
Reaches altitude 10° 14:37:25 10° 136° (SE) 6,263 11.0 45.4°
Maximum altitude 14:39:26 10° 130° (SE) 6,257 11.0 45.1°
Drops below altitude 10° 14:41:27 10° 124° (SE) 6,278 11.0 44.8°
Sets 14:54:07 0° 91° (E) 7,000 11.0 42.6°
